When you browse on this site, cookies collect data to enhance your experience and personalize the content and advertising you see.
Visit our Privacy Policy to learn more. By continuing to use the site, you agree to this use of cookies and data.
  • en Suisse
  • Liste des pays
  • À 7 jours
  • Température de l'eau
  • Carte météo
  • Widgets météo
  • user-avatar
    Se connecter

    Météo par heure à Ghazni

    Ce jour, 29 Mai, Vendredi

    Heure Température Précipitation Vent Pression Humidité
    00:00 +18°C° 0 mm 3 m/s 587 mmHg 41%
    01:00 +18°C° 0 mm 3 m/s 586 mmHg 45%
    02:00 +17°C° 0 mm 3 m/s 586 mmHg 49%
    03:00 +17°C° 0 mm 2 m/s 586 mmHg 49%
    04:00 +17°C° 0 mm 2 m/s 585 mmHg 49%
    05:00 +16°C° 0 mm 2 m/s 585 mmHg 49%
    06:00 +17°C° 0 mm 2 m/s 586 mmHg 45%
    07:00 +18°C° 0 mm 3 m/s 587 mmHg 42%
    08:00 +20°C° 0 mm 3 m/s 587 mmHg 38%
    09:00 +21°C° 0 mm 2 m/s 588 mmHg 34%
    10:00 +23°C° 0 mm 2 m/s 588 mmHg 30%
    11:00 +24°C° 0 mm 2 m/s 588 mmHg 26%
    12:00 +24°C° 0.1 mm 3 m/s 588 mmHg 28%
    13:00 +24°C° 0.1 mm 3 m/s 588 mmHg 29%
    14:00 +23°C° 0.1 mm 4 m/s 588 mmHg 30%
    15:00 +23°C° 0.3 mm 5 m/s 588 mmHg 31%
    16:00 +23°C° 0.3 mm 5 m/s 588 mmHg 31%
    17:00 +23°C° 0.3 mm 5 m/s 588 mmHg 31%
    18:00 +22°C° 0 mm 5 m/s 588 mmHg 33%
    19:00 +22°C° 0 mm 4 m/s 588 mmHg 35%
    20:00 +21°C° 0 mm 4 m/s 588 mmHg 37%
    21:00 +19°C° 0.3 mm 4 m/s 587 mmHg 46%
    22:00 +18°C° 0.3 mm 4 m/s 586 mmHg 54%
    23:00 +17°C° 0.3 mm 4 m/s 586 mmHg 63%

    Demain, 30 Mai, Samedi

    Heure Température Précipitation Vent Pression Humidité
    00:00 +16°C° 0 mm 3 m/s 586 mmHg 62%
    01:00 +16°C° 0 mm 2 m/s 585 mmHg 60%
    02:00 +16°C° 0 mm 1 m/s 585 mmHg 59%
    03:00 +16°C° 0 mm 1 m/s 585 mmHg 59%
    04:00 +16°C° 0 mm 1 m/s 585 mmHg 59%
    05:00 +15°C° 0 mm 1 m/s 585 mmHg 58%
    06:00 +16°C° 0 mm 1 m/s 586 mmHg 52%
    07:00 +18°C° 0 mm 2 m/s 586 mmHg 45%
    08:00 +19°C° 0 mm 2 m/s 587 mmHg 38%
    09:00 +20°C° 0 mm 2 m/s 588 mmHg 33%
    10:00 +21°C° 0 mm 2 m/s 588 mmHg 28%
    11:00 +23°C° 0 mm 2 m/s 589 mmHg 23%
    12:00 +24°C° 0 mm 2 m/s 589 mmHg 20%
    13:00 +25°C° 0 mm 2 m/s 589 mmHg 18%
    14:00 +26°C° 0 mm 2 m/s 589 mmHg 16%
    15:00 +26°C° 0 mm 2 m/s 589 mmHg 15%
    16:00 +26°C° 0 mm 2 m/s 589 mmHg 14%
    17:00 +27°C° 0 mm 2 m/s 589 mmHg 14%
    18:00 +25°C° 0 mm 4 m/s 588 mmHg 21%
    19:00 +22°C° 0 mm 6 m/s 588 mmHg 29%
    20:00 +21°C° 0 mm 8 m/s 587 mmHg 37%
    21:00 +20°C° 0 mm 6 m/s 587 mmHg 40%
    22:00 +20°C° 0 mm 4 m/s 588 mmHg 44%
    23:00 +19°C° 0 mm 2 m/s 588 mmHg 47%

    Après-demain, 31 Mai, Dimanche

    Heure Température Précipitation Vent Pression Humidité
    00:00 +19°C° 0 mm 2 m/s 587 mmHg 49%
    01:00 +18°C° 0 mm 2 m/s 587 mmHg 50%
    02:00 +18°C° 0 mm 2 m/s 587 mmHg 52%
    03:00 +18°C° 0 mm 1 m/s 587 mmHg 53%
    04:00 +18°C° 0 mm 1 m/s 586 mmHg 54%
    05:00 +16°C° 0 mm 1 m/s 586 mmHg 56%
    06:00 +18°C° 0 mm 1 m/s 587 mmHg 51%
    07:00 +19°C° 0 mm 1 m/s 588 mmHg 46%
    08:00 +18°C° 0 mm 0 m/s 588 mmHg 41%
    09:00 +21°C° 0 mm 1 m/s 589 mmHg 35%
    10:00 +23°C° 0 mm 1 m/s 589 mmHg 30%
    11:00 +24°C° 0 mm 1 m/s 590 mmHg 24%
    12:00 +25°C° 0 mm 1 m/s 589 mmHg 22%
    13:00 +26°C° 0 mm 2 m/s 589 mmHg 19%
    14:00 +27°C° 0 mm 2 m/s 589 mmHg 17%
    15:00 +27°C° 0 mm 3 m/s 589 mmHg 16%
    16:00 +28°C° 0 mm 3 m/s 589 mmHg 16%
    17:00 +28°C° 0 mm 4 m/s 589 mmHg 15%
    18:00 +27°C° 0 mm 3 m/s 588 mmHg 17%
    19:00 +26°C° 0 mm 3 m/s 588 mmHg 19%
    20:00 +25°C° 0 mm 2 m/s 588 mmHg 20%
    21:00 +24°C° 0 mm 2 m/s 588 mmHg 28%
    22:00 +23°C° 0 mm 2 m/s 588 mmHg 36%
    23:00 +20°C° 0 mm 2 m/s 588 mmHg 44%

    1 Juin, Lundi

    Heure Température Précipitation Vent Pression Humidité
    00:00 +20°C° 0 mm 2 m/s 588 mmHg 46%
    01:00 +19°C° 0 mm 2 m/s 588 mmHg 48%
    02:00 +20°C° 0 mm 1 m/s 587 mmHg 50%
    03:00 +19°C° 0 mm 1 m/s 587 mmHg 51%
    04:00 +19°C° 0 mm 1 m/s 587 mmHg 51%
    05:00 +16°C° 0 mm 0 m/s 587 mmHg 52%
    06:00 +19°C° 0 mm 1 m/s 587 mmHg 47%
    07:00 +20°C° 0 mm 1 m/s 588 mmHg 41%
    08:00 +21°C° 0 mm 1 m/s 589 mmHg 36%
    09:00 +22°C° 0 mm 1 m/s 589 mmHg 32%
    10:00 +24°C° 0 mm 1 m/s 590 mmHg 28%
    11:00 +25°C° 0 mm 1 m/s 590 mmHg 24%
    12:00 +26°C° 0 mm 2 m/s 590 mmHg 21%
    13:00 +27°C° 0 mm 2 m/s 590 mmHg 18%
    14:00 +28°C° 0 mm 3 m/s 590 mmHg 15%
    15:00 +28°C° 0 mm 3 m/s 590 mmHg 14%
    16:00 +29°C° 0 mm 3 m/s 590 mmHg 13%
    17:00 +29°C° 0 mm 4 m/s 590 mmHg 12%
    18:00 +28°C° 0 mm 4 m/s 590 mmHg 13%
    19:00 +27°C° 0 mm 4 m/s 589 mmHg 14%
    20:00 +26°C° 0 mm 4 m/s 589 mmHg 15%
    21:00 +25°C° 0 mm 4 m/s 589 mmHg 18%
    22:00 +22°C° 0 mm 3 m/s 589 mmHg 22%
    23:00 +21°C° 0 mm 3 m/s 589 mmHg 26%

    2 Juin, Mardi

    Heure Température Précipitation Vent Pression Humidité
    00:00 +20°C° 0 mm 3 m/s 588 mmHg 25%
    01:00 +20°C° 0 mm 3 m/s 588 mmHg 24%
    02:00 +19°C° 0 mm 3 m/s 587 mmHg 23%
    03:00 +18°C° 0 mm 2 m/s 587 mmHg 24%
    04:00 +18°C° 0 mm 2 m/s 587 mmHg 25%
    05:00 +17°C° 0 mm 2 m/s 586 mmHg 27%
    06:00 +18°C° 0 mm 2 m/s 587 mmHg 24%
    07:00 +19°C° 0 mm 2 m/s 588 mmHg 22%
    08:00 +21°C° 0 mm 3 m/s 589 mmHg 20%
    09:00 +22°C° 0 mm 3 m/s 589 mmHg 18%
    10:00 +24°C° 0 mm 2 m/s 589 mmHg 15%
    11:00 +25°C° 0 mm 2 m/s 589 mmHg 13%
    12:00 +26°C° 0 mm 2 m/s 590 mmHg 12%
    13:00 +27°C° 0 mm 2 m/s 590 mmHg 11%
    14:00 +28°C° 0 mm 2 m/s 590 mmHg 10%
    15:00 +28°C° 0 mm 2 m/s 589 mmHg 10%
    16:00 +28°C° 0 mm 2 m/s 589 mmHg 9%
    17:00 +29°C° 0 mm 3 m/s 589 mmHg 9%
    18:00 +28°C° 0 mm 2 m/s 589 mmHg 11%
    19:00 +27°C° 0 mm 2 m/s 588 mmHg 13%
    20:00 +26°C° 0 mm 1 m/s 588 mmHg 15%
    21:00 +25°C° 0 mm 2 m/s 588 mmHg 17%
    22:00 +24°C° 0 mm 2 m/s 588 mmHg 19%
    23:00 +23°C° 0 mm 2 m/s 588 mmHg 21%

    3 Juin, Mercredi

    Heure Température Précipitation Vent Pression Humidité
    00:00 +21°C° 0 mm 2 m/s 587 mmHg 23%
    01:00 +20°C° 0 mm 3 m/s 587 mmHg 25%
    02:00 +20°C° 0 mm 3 m/s 587 mmHg 26%
    03:00 +19°C° 0 mm 3 m/s 586 mmHg 26%
    04:00 +18°C° 0 mm 2 m/s 586 mmHg 27%
    05:00 +18°C° 0 mm 2 m/s 586 mmHg 27%
    06:00 +19°C° 0 mm 2 m/s 587 mmHg 24%
    07:00 +20°C° 0 mm 3 m/s 587 mmHg 22%
    08:00 +21°C° 0 mm 3 m/s 588 mmHg 19%
    09:00 +22°C° 0 mm 3 m/s 589 mmHg 17%
    10:00 +23°C° 0 mm 4 m/s 589 mmHg 15%
    11:00 +26°C° 0 mm 4 m/s 589 mmHg 13%
    12:00 +26°C° 0 mm 3 m/s 589 mmHg 12%
    13:00 +27°C° 0 mm 3 m/s 589 mmHg 11%
    14:00 +28°C° 0 mm 3 m/s 589 mmHg 10%
    15:00 +27°C° 0 mm 4 m/s 589 mmHg 14%
    16:00 +26°C° 0 mm 6 m/s 589 mmHg 18%
    17:00 +26°C° 0 mm 7 m/s 588 mmHg 22%
    18:00 +25°C° 0 mm 5 m/s 588 mmHg 26%
    19:00 +24°C° 0 mm 3 m/s 588 mmHg 29%
    20:00 +23°C° 0 mm 2 m/s 588 mmHg 32%
    21:00 +21°C° 0 mm 2 m/s 588 mmHg 32%
    22:00 +21°C° 0 mm 2 m/s 588 mmHg 32%
    23:00 +20°C° 0 mm 2 m/s 588 mmHg 32%
    Voir plus